Time,TemperatureF,DewpointF,PressureIn,WindDirection,WindDirectionDegrees,WindSpeedMPH,WindSpeedGustMPH,Humidity,HourlyPrecipIn,Conditions,Clouds,dailyrainin,SoftwareType,DateUTC
2013-01-20 00:05:00,44.6,8.1,30.00,ENE,58,4.0,8.3,22,0.00,,,-99.99,FreeWX 2.04,2013-01-20 05:05:00,
2013-01-20 00:15:00,44.2,7.9,30.00,NNE,27,5.0,10.5,22,0.00,,,-99.99,FreeWX 2.04,2013-01-20 05:15:00,
2013-01-20 00:25:00,44.1,7.7,30.00,North,359,4.0,8.7,22,0.00,,,-99.99,FreeWX 2.04,2013-01-20 05:25:00,
2013-01-20 00:35:00,43.9,7.5,30.00,NNE,27,4.0,10.1,22,0.00,,,-99.99,FreeWX 2.04,2013-01-20 05:35:00,
2013-01-20 00:45:00,43.9,7.5,30.00,North,9,4.0,8.7,22,0.00,,,-99.99,FreeWX 2.04,2013-01-20 05:45:00,
2013-01-20 00:55:00,43.5,8.2,30.00,North,359,4.0,9.6,23,0.00,,,-99.99,FreeWX 2.04,2013-01-20 05:55:00,
2013-01-20 01:05:00,43.7,7.3,30.00,NE,50,4.0,13.0,22,0.00,,,-99.99,FreeWX 2.04,2013-01-20 06:05:00,
2013-01-20 01:15:00,43.3,8.1,30.00,NNE,23,4.0,8.3,23,0.00,,,-99.99,FreeWX 2.04,2013-01-20 06:15:00,
2013-01-20 01:25:00,43.3,8.1,30.00,North,4,2.0,8.3,23,0.00,,,-99.99,FreeWX 2.04,2013-01-20 06:25:00,
2013-01-20 01:35:00,43.0,7.7,30.00,North,11,2.0,6.3,23,0.00,,,-99.99,FreeWX 2.04,2013-01-20 06:35:00,
2013-01-20 01:45:00,42.8,9.5,30.00,North,6,3.0,10.5,25,0.00,,,-99.99,FreeWX 2.04,2013-01-20 06:45:00,
2013-01-20 01:55:00,42.4,9.1,30.00,NE,42,2.0,6.9,25,0.00,,,-99.99,FreeWX 2.04,2013-01-20 06:55:00,
2013-01-20 02:05:00,42.3,9.0,30.00,NNE,22,3.0,7.8,25,0.00,,,-99.99,FreeWX 2.04,2013-01-20 07:05:00,
2013-01-20 02:15:00,42.3,9.0,30.00,North,0,2.0,8.7,25,0.00,,,-99.99,FreeWX 2.04,2013-01-20 07:15:00,
2013-01-20 02:25:00,42.3,9.0,30.00,North,2,2.0,6.9,25,0.00,,,-99.99,FreeWX 2.04,2013-01-20 07:25:00,
2013-01-20 02:35:00,41.9,11.1,30.00,North,8,3.0,9.2,28,0.00,,,-99.99,FreeWX 2.04,2013-01-20 07:35:00,
2013-01-20 02:45:00,41.5,10.9,30.00,North,5,3.0,8.7,28,0.00,,,-99.99,FreeWX 2.04,2013-01-20 07:45:00,
2013-01-20 02:55:00,41.9,11.1,30.00,North,10,4.0,7.8,28,0.00,,,-99.99,FreeWX 2.04,2013-01-20 07:55:00,
2013-01-20 03:05:00,41.9,11.1,30.00,North,3,2.0,5.4,28,0.00,,,-99.99,FreeWX 2.04,2013-01-20 08:05:00,
2013-01-20 03:15:00,42.1,11.3,30.00,NNE,29,4.0,7.8,28,0.00,,,-99.99,FreeWX 2.04,2013-01-20 08:15:00,
2013-01-20 03:29:00,43.0,12.2,30.00,NE,45,4.0,10.5,28,0.00,,,-99.99,FreeWX 2.04,2013-01-20 08:29:00,
2013-01-20 03:39:00,43.7,12.7,30.00,ENE,66,4.0,8.3,28,0.00,,,-99.99,FreeWX 2.04,2013-01-20 08:39:00,
2013-01-20 03:49:00,43.9,12.9,30.00,ENE,75,3.0,10.1,28,0.00,,,-99.99,FreeWX 2.04,2013-01-20 08:49:00,
2013-01-20 03:59:00,44.1,13.1,30.00,ENE,74,5.0,14.3,28,0.00,,,-99.99,FreeWX 2.04,2013-01-20 08:59:00,
2013-01-20 04:09:00,44.1,13.1,30.00,ENE,60,4.0,11.0,28,0.00,,,-99.99,FreeWX 2.04,2013-01-20 09:09:00,
2013-01-20 04:19:00,44.1,13.1,30.00,NE,56,4.0,8.7,28,0.00,,,-99.99,FreeWX 2.04,2013-01-20 09:19:00,
2013-01-20 04:29:00,44.1,13.1,30.00,ENE,74,5.0,12.1,28,0.00,,,-99.99,FreeWX 2.04,2013-01-20 09:29:00,
2013-01-20 04:39:00,43.9,12.9,30.00,ENE,61,5.0,9.6,28,0.00,,,-99.99,FreeWX 2.04,2013-01-20 09:39:00,
2013-01-20 04:49:00,44.1,13.1,30.00,East,81,5.0,10.5,28,0.00,,,-99.99,FreeWX 2.04,2013-01-20 09:49:00,
2013-01-20 04:59:00,44.2,13.3,30.00,ENE,70,6.0,11.6,28,0.00,,,-99.99,FreeWX 2.04,2013-01-20 09:59:00,
2013-01-20 05:09:00,44.2,13.3,30.00,ENE,68,5.0,11.6,28,0.00,,,-99.99,FreeWX 2.04,2013-01-20 10:09:00,
2013-01-20 05:19:00,43.7,12.7,30.00,ENE,77,5.0,11.2,28,0.00,,,-99.99,FreeWX 2.04,2013-01-20 10:19:00,
2013-01-20 05:29:00,43.5,13.5,30.00,ENE,72,4.0,11.2,29,0.00,,,-99.99,FreeWX 2.04,2013-01-20 10:29:00,
2013-01-20 05:39:00,43.7,13.6,30.00,East,82,5.0,8.7,29,0.00,,,-99.99,FreeWX 2.04,2013-01-20 10:39:00,
2013-01-20 05:50:00,43.3,13.3,30.00,East,84,4.0,8.7,29,0.00,,,-99.99,FreeWX 2.04,2013-01-20 10:50:00,
2013-01-20 06:00:00,43.3,14.0,30.00,ENE,72,5.0,14.8,30,0.00,,,-99.99,FreeWX 2.04,2013-01-20 11:00:00,
2013-01-20 06:10:00,43.0,12.9,30.00,East,79,4.0,12.1,29,0.00,,,-99.99,FreeWX 2.04,2013-01-20 11:10:00,
2013-01-20 06:20:00,42.8,13.5,30.03,ENE,77,4.0,9.2,30,0.00,,,-99.99,FreeWX 2.04,2013-01-20 11:20:00,
2013-01-20 06:30:00,43.0,13.6,30.03,East,92,5.0,12.1,30,0.00,,,-99.99,FreeWX 2.04,2013-01-20 11:30:00,
2013-01-20 06:40:00,42.4,14.0,30.03,ENE,77,4.0,9.6,31,0.00,,,-99.99,FreeWX 2.04,2013-01-20 11:40:00,
2013-01-20 06:50:00,42.3,13.8,30.03,ENE,74,4.0,8.7,31,0.00,,,-99.99,FreeWX 2.04,2013-01-20 11:50:00,
2013-01-20 07:00:00,41.7,14.0,30.03,East,83,4.0,9.6,32,0.00,,,-99.99,FreeWX 2.04,2013-01-20 12:00:00,
2013-01-20 07:10:00,41.5,14.5,30.03,ENE,74,4.0,9.6,33,0.00,,,-99.99,FreeWX 2.04,2013-01-20 12:10:00,
2013-01-20 07:20:00,41.4,14.4,30.03,East,97,3.0,9.2,33,0.00,,,-99.99,FreeWX 2.04,2013-01-20 12:20:00,
2013-01-20 07:30:00,41.2,14.4,30.03,East,94,3.0,10.1,33,0.00,,,-99.99,FreeWX 2.04,2013-01-20 12:30:00,
2013-01-20 07:40:00,40.8,15.3,30.06,ENE,57,4.0,8.7,35,0.00,,,-99.99,FreeWX 2.04,2013-01-20 12:40:00,
2013-01-20 07:50:00,40.8,14.7,30.06,NE,36,3.0,7.4,34,0.00,,,-99.99,FreeWX 2.04,2013-01-20 12:50:00,
2013-01-20 08:00:00,40.6,15.1,30.06,East,89,4.0,9.6,35,0.00,,,-99.99,FreeWX 2.04,2013-01-20 13:00:00,
2013-01-20 08:10:00,41.0,14.7,30.06,NE,48,4.0,10.1,34,0.00,,,-99.99,FreeWX 2.04,2013-01-20 13:10:00,
2013-01-20 08:20:00,41.2,14.4,30.06,ENE,78,3.0,6.3,33,0.00,,,-99.99,FreeWX 2.04,2013-01-20 13:20:00,
2013-01-20 08:30:00,41.5,13.8,30.06,East,90,3.0,6.7,32,0.00,,,-99.99,FreeWX 2.04,2013-01-20 13:30:00,
2013-01-20 08:40:00,42.1,13.6,30.06,NE,48,4.0,7.4,31,0.00,,,-99.99,FreeWX 2.04,2013-01-20 13:40:00,
2013-01-20 08:50:00,42.6,12.6,30.09,ENE,73,5.0,12.5,29,0.00,,,-99.99,FreeWX 2.04,2013-01-20 13:50:00,
2013-01-20 09:00:00,43.0,12.9,30.09,ENE,57,4.0,11.0,29,0.00,,,-99.99,FreeWX 2.04,2013-01-20 14:00:00,
2013-01-20 09:10:00,43.3,12.4,30.09,East,86,3.0,9.2,28,0.00,,,-99.99,FreeWX 2.04,2013-01-20 14:10:00,
2013-01-20 09:20:00,43.9,10.4,30.09,ENE,75,5.0,8.3,25,0.00,,,-99.99,FreeWX 2.04,2013-01-20 14:20:00,
2013-01-20 09:30:00,44.6,10.9,30.09,East,82,4.0,13.9,25,0.00,,,-99.99,FreeWX 2.04,2013-01-20 14:30:00,
2013-01-20 09:40:00,45.1,11.5,30.09,ENE,67,4.0,9.2,25,0.00,,,-99.99,FreeWX 2.04,2013-01-20 14:40:00,
2013-01-20 09:50:00,44.8,8.2,30.12,ESE,113,4.0,8.7,22,0.00,,,-99.99,FreeWX 2.04,2013-01-20 14:50:00,
2013-01-20 10:00:00,44.4,10.8,30.12,East,91,3.0,6.9,25,0.00,,,-99.99,FreeWX 2.04,2013-01-20 15:00:00,
2013-01-20 10:10:00,44.4,10.8,30.12,ENE,60,3.0,11.0,25,0.00,,,-99.99,FreeWX 2.04,2013-01-20 15:10:00,
2013-01-20 10:20:00,44.4,10.8,30.12,ENE,77,3.0,9.2,25,0.00,,,-99.99,FreeWX 2.04,2013-01-20 15:20:00,
2013-01-20 10:30:00,45.0,11.3,30.15,ENE,72,4.0,8.7,25,0.00,,,-99.99,FreeWX 2.04,2013-01-20 15:30:00,
2013-01-20 10:40:00,46.2,11.5,30.15,ENE,70,4.0,10.5,24,0.00,,,-99.99,FreeWX 2.04,2013-01-20 15:40:00,
2013-01-20 10:50:00,45.9,9.1,30.15,East,89,4.0,10.1,22,0.00,,,-99.99,FreeWX 2.04,2013-01-20 15:50:00,
2013-01-20 11:00:00,44.1,7.7,30.15,SE,125,4.0,8.3,22,0.00,,,-99.99,FreeWX 2.04,2013-01-20 16:00:00,
2013-01-20 11:10:00,45.3,8.8,30.15,SE,127,4.0,6.9,22,0.00,,,-99.99,FreeWX 2.04,2013-01-20 16:10:00,
2013-01-20 11:20:00,46.9,10.0,30.15,ESE,103,4.0,7.4,22,0.00,,,-99.99,FreeWX 2.04,2013-01-20 16:20:00,
2013-01-20 11:30:00,46.9,10.0,30.15,East,88,4.0,7.8,22,0.00,,,-99.99,FreeWX 2.04,2013-01-20 16:30:00,
2013-01-20 11:40:00,46.9,10.0,30.15,ESE,121,4.0,7.8,22,0.00,,,-99.99,FreeWX 2.04,2013-01-20 16:40:00,
2013-01-20 11:50:00,46.8,6.8,30.15,SE,125,4.0,7.4,19,0.00,,,-99.99,FreeWX 2.04,2013-01-20 16:50:00,
2013-01-20 12:00:00,46.9,6.8,30.15,ENE,72,3.0,6.3,19,0.00,,,-99.99,FreeWX 2.04,2013-01-20 17:00:00,
2013-01-20 12:10:00,47.1,7.0,30.15,ESE,108,5.0,8.7,19,0.00,,,-99.99,FreeWX 2.04,2013-01-20 17:10:00,
2013-01-20 12:20:00,47.3,7.2,30.15,ESE,111,4.0,8.3,19,0.00,,,-99.99,FreeWX 2.04,2013-01-20 17:20:00,
2013-01-20 12:30:00,47.3,7.2,30.15,ESE,113,5.0,11.0,19,0.00,,,-99.99,FreeWX 2.04,2013-01-20 17:30:00,
2013-01-20 12:40:00,46.9,6.8,30.15,ESE,102,5.0,11.2,19,0.00,,,-99.99,FreeWX 2.04,2013-01-20 17:40:00,
2013-01-20 12:50:00,47.7,7.5,30.12,East,97,5.0,11.6,19,0.00,,,-99.99,FreeWX 2.04,2013-01-20 17:50:00,
2013-01-20 13:00:00,47.8,7.5,30.12,ENE,72,5.0,9.6,19,0.00,,,-99.99,FreeWX 2.04,2013-01-20 18:00:00,
2013-01-20 13:10:00,46.8,6.8,30.12,SE,129,4.0,7.4,19,0.00,,,-99.99,FreeWX 2.04,2013-01-20 18:10:00,
2013-01-20 13:20:00,47.3,7.2,30.12,SE,125,4.0,8.7,19,0.00,,,-99.99,FreeWX 2.04,2013-01-20 18:20:00,
2013-01-20 13:30:00,47.5,7.3,30.12,East,101,4.0,10.1,19,0.00,,,-99.99,FreeWX 2.04,2013-01-20 18:30:00,
2013-01-20 13:40:00,47.1,7.0,30.12,ESE,112,4.0,7.8,19,0.00,,,-99.99,FreeWX 2.04,2013-01-20 18:40:00,
2013-01-20 13:50:00,47.3,7.2,30.12,SE,124,4.0,6.9,19,0.00,,,-99.99,FreeWX 2.04,2013-01-20 18:50:00,
2013-01-20 14:00:00,47.1,7.0,30.12,ESE,109,4.0,6.9,19,0.00,,,-99.99,FreeWX 2.04,2013-01-20 19:00:00,
2013-01-20 14:10:00,47.3,7.2,30.12,SE,131,3.0,8.3,19,0.00,,,-99.99,FreeWX 2.04,2013-01-20 19:10:00,
2013-01-20 14:20:00,46.8,6.8,30.12,ESE,116,3.0,6.3,19,0.00,,,-99.99,FreeWX 2.04,2013-01-20 19:20:00,
2013-01-20 14:30:00,45.5,5.7,30.12,SE,135,4.0,7.4,19,0.00,,,-99.99,FreeWX 2.04,2013-01-20 19:30:00,
2013-01-20 14:40:00,45.9,5.9,30.12,SE,130,4.0,6.7,19,0.00,,,-99.99,FreeWX 2.04,2013-01-20 19:40:00,
2013-01-20 14:50:00,46.8,6.8,30.12,ESE,116,3.0,6.7,19,0.00,,,-99.99,FreeWX 2.04,2013-01-20 19:50:00,
2013-01-20 15:00:00,46.6,6.6,30.12,East,95,3.0,6.7,19,0.00,,,-99.99,FreeWX 2.04,2013-01-20 20:00:00,
2013-01-20 15:10:00,45.9,5.9,30.12,ESE,113,3.0,6.9,19,0.00,,,-99.99,FreeWX 2.04,2013-01-20 20:10:00,
2013-01-20 15:20:00,46.0,6.1,30.12,SSE,149,2.0,6.9,19,0.00,,,-99.99,FreeWX 2.04,2013-01-20 20:20:00,
2013-01-20 15:30:00,46.4,6.4,30.12,East,93,2.0,6.7,19,0.00,,,-99.99,FreeWX 2.04,2013-01-20 20:30:00,
2013-01-20 15:40:00,45.3,6.6,30.12,SE,125,4.0,7.4,20,0.00,,,-99.99,FreeWX 2.04,2013-01-20 20:40:00,
2013-01-20 15:50:00,45.0,6.3,30.12,ESE,107,2.0,4.9,20,0.00,,,-99.99,FreeWX 2.04,2013-01-20 20:50:00,
2013-01-20 16:00:00,45.0,6.3,30.12,East,101,3.0,5.4,20,0.00,,,-99.99,FreeWX 2.04,2013-01-20 21:00:00,
2013-01-20 16:10:00,44.4,5.9,30.12,ENE,75,3.0,7.4,20,0.00,,,-99.99,FreeWX 2.04,2013-01-20 21:10:00,
2013-01-20 16:20:00,43.7,5.4,30.12,ESE,103,2.0,5.4,20,0.00,,,-99.99,FreeWX 2.04,2013-01-20 21:20:00,
2013-01-20 16:30:00,43.3,5.0,30.12,North,3,1.0,4.9,20,0.00,,,-99.99,FreeWX 2.04,2013-01-20 21:30:00,
2013-01-20 16:40:00,43.0,4.6,30.12,East,92,2.0,6.3,20,0.00,,,-99.99,FreeWX 2.04,2013-01-20 21:40:00,
2013-01-20 16:50:00,42.6,4.5,30.12,East,95,3.0,6.7,20,0.00,,,-99.99,FreeWX 2.04,2013-01-20 21:50:00,
2013-01-20 17:00:00,42.3,4.1,30.12,East,98,1.0,6.9,20,0.00,,,-99.99,FreeWX 2.04,2013-01-20 22:00:00,
2013-01-20 17:10:00,42.1,3.9,30.12,NNE,31,3.0,8.7,20,0.00,,,-99.99,FreeWX 2.04,2013-01-20 22:10:00,
2013-01-20 17:20:00,41.0,4.1,30.12,NE,52,2.0,6.7,21,0.00,,,-99.99,FreeWX 2.04,2013-01-20 22:20:00,
2013-01-20 17:30:00,39.9,3.2,30.12,East,87,1.0,4.5,21,0.00,,,-99.99,FreeWX 2.04,2013-01-20 22:30:00,
2013-01-20 17:40:00,39.4,2.7,30.12,ENE,64,1.0,6.3,21,0.00,,,-99.99,FreeWX 2.04,2013-01-20 22:40:00,
2013-01-20 17:50:00,38.7,2.1,30.12,East,79,2.0,5.8,21,0.00,,,-99.99,FreeWX 2.04,2013-01-20 22:50:00,
2013-01-20 18:00:00,38.1,1.8,30.12,East,95,1.0,4.9,21,0.00,,,-99.99,FreeWX 2.04,2013-01-20 23:00:00,
2013-01-20 18:10:00,37.6,1.2,30.12,North,-999,0.0,3.6,21,0.00,,,-99.99,FreeWX 2.04,2013-01-20 23:10:00,
2013-01-20 18:20:00,37.2,0.9,30.12,NE,52,1.0,3.1,21,0.00,,,-99.99,FreeWX 2.04,2013-01-20 23:20:00,
2013-01-20 18:30:00,36.7,0.5,30.15,North,-999,0.0,0.0,21,0.00,,,-99.99,FreeWX 2.04,2013-01-20 23:30:00,
2013-01-20 18:40:00,36.1,1.0,30.15,North,-999,0.0,0.0,22,0.00,,,-99.99,FreeWX 2.04,2013-01-20 23:40:00,
2013-01-20 18:50:00,35.4,0.3,30.12,North,-999,0.0,0.0,22,0.00,,,-99.99,FreeWX 2.04,2013-01-20 23:50:00,
2013-01-20 19:00:00,35.1,0.1,30.12,North,-999,0.0,0.0,22,0.00,,,-99.99,FreeWX 2.04,2013-01-21 00:00:00,
2013-01-20 19:11:00,34.5,-0.4,30.12,North,-999,0.0,0.0,22,0.00,,,-99.99,FreeWX 2.04,2013-01-21 00:11:00,
2013-01-20 19:21:00,34.2,-0.6,30.15,North,-999,0.0,0.0,22,0.00,,,-99.99,FreeWX 2.04,2013-01-21 00:21:00,
2013-01-20 19:31:00,34.0,-0.8,30.15,North,-999,0.0,0.0,22,0.00,,,-99.99,FreeWX 2.04,2013-01-21 00:31:00,
2013-01-20 19:41:00,33.8,-0.9,30.15,North,-999,0.0,0.0,22,0.00,,,-99.99,FreeWX 2.04,2013-01-21 00:41:00,
2013-01-20 19:51:00,33.4,-1.3,30.15,North,-999,0.0,0.0,22,0.00,,,-99.99,FreeWX 2.04,2013-01-21 00:51:00,
2013-01-20 20:01:00,33.3,-1.5,30.15,North,-999,0.0,4.0,22,0.00,,,-99.99,FreeWX 2.04,2013-01-21 01:01:00,
2013-01-20 20:11:00,33.1,-1.7,30.15,North,-999,0.0,0.0,22,0.00,,,-99.99,FreeWX 2.04,2013-01-21 01:11:00,
2013-01-20 20:21:00,32.9,-1.7,30.15,North,-999,0.0,3.6,22,0.00,,,-99.99,FreeWX 2.04,2013-01-21 01:21:00,
2013-01-20 20:31:00,32.9,-1.7,30.15,North,-999,0.0,2.7,22,0.00,,,-99.99,FreeWX 2.04,2013-01-21 01:31:00,
2013-01-20 20:41:00,32.9,-0.8,30.15,North,-999,0.0,4.0,23,0.00,,,-99.99,FreeWX 2.04,2013-01-21 01:41:00,
2013-01-20 20:51:00,32.7,-0.9,30.15,North,-999,0.0,2.7,23,0.00,,,-99.99,FreeWX 2.04,2013-01-21 01:51:00,
2013-01-20 21:01:00,32.4,-1.3,30.15,North,-999,0.0,0.0,23,0.00,,,-99.99,FreeWX 2.04,2013-01-21 02:01:00,
2013-01-20 21:11:00,31.6,-1.8,30.15,North,-999,0.0,0.0,23,0.00,,,-99.99,FreeWX 2.04,2013-01-21 02:11:00,
2013-01-20 21:21:00,30.6,-2.7,30.15,North,-999,0.0,0.0,23,0.00,,,-99.99,FreeWX 2.04,2013-01-21 02:21:00,
2013-01-20 21:31:00,30.0,-3.3,30.15,North,-999,0.0,0.0,23,0.00,,,-99.99,FreeWX 2.04,2013-01-21 02:31:00,
2013-01-20 21:41:00,29.7,-1.8,30.15,North,-999,0.0,0.0,25,0.00,,,-99.99,FreeWX 2.04,2013-01-21 02:41:00,
2013-01-20 21:51:00,29.3,-2.0,30.15,North,-999,0.0,0.0,25,0.00,,,-99.99,FreeWX 2.04,2013-01-21 02:51:00,
2013-01-20 22:01:00,28.9,-1.7,30.15,North,-999,0.0,0.0,26,0.00,,,-99.99,FreeWX 2.04,2013-01-21 03:01:00,
2013-01-20 22:11:00,28.8,-0.2,30.15,North,-999,0.0,0.0,28,0.00,,,-99.99,FreeWX 2.04,2013-01-21 03:11:00,
2013-01-20 22:21:00,28.8,-0.2,30.15,North,-999,0.0,0.0,28,0.00,,,-99.99,FreeWX 2.04,2013-01-21 03:21:00,
2013-01-20 22:31:00,28.8,1.9,30.12,North,-999,0.0,0.0,31,0.00,,,-99.99,FreeWX 2.04,2013-01-21 03:31:00,
2013-01-20 22:41:00,28.4,-0.6,30.12,North,-999,0.0,0.0,28,0.00,,,-99.99,FreeWX 2.04,2013-01-21 03:41:00,
2013-01-20 22:51:00,28.2,1.6,30.12,North,-999,0.0,0.0,31,0.00,,,-99.99,FreeWX 2.04,2013-01-21 03:51:00,
2013-01-20 23:11:00,28.0,2.7,30.12,North,-999,0.0,0.0,33,0.00,,,-99.99,FreeWX 2.04,2013-01-21 04:11:00,
2013-01-20 23:21:00,27.7,1.8,30.12,North,-999,0.0,0.0,32,0.00,,,-99.99,FreeWX 2.04,2013-01-21 04:21:00,
2013-01-20 23:32:00,27.5,1.6,30.12,North,-999,0.0,0.0,32,0.00,,,-99.99,FreeWX 2.04,2013-01-21 04:32:00,
2013-01-20 23:42:00,27.3,2.7,30.12,North,-999,0.0,0.0,34,0.00,,,-99.99,FreeWX 2.04,2013-01-21 04:42:00,
2013-01-20 23:52:00,27.1,1.9,30.12,North,-999,0.0,0.0,33,0.00,,,-99.99,FreeWX 2.04,2013-01-21 04:52:00,